Regional Weather Roundup
Issued by NWS

Home | Current Version | Previous Version | Text Only | Print | Product List | Glossary Off
Versions: 1 2 3 4 5 6 7 8 9 10 11 12 13 14 15 16 17 18 19 20 21 22 23 24 25 26 27 28 29 30 31 32 33 34 35 36 37 38 39 40 41 42 43 44 45 46 47 48 49 50

122
ASUS43 KIND 191259
RWRIN

WEATHER ROUNDUP FOR INDIANA
NATIONAL WEATHER SERVICE INDIANAPOLIS IN
800 AM EST FRI JAN 19 2018

NOTE: "FAIR" INDICATES FEW OR NO CLOUDS BELOW 12,000 FEET WITH NO
SIGNIFICANT WEATHER AND/OR OBSTRUCTIONS TO VISIBILITY.

* - STATION DOES NOT REPORT WEATHER SUCH AS PRECIPITATION OR FOG.

+ - STATION NOT QUALITY CONTROLLED BY THE NATIONAL WEATHER SERVICE.
    USE DATA WITH CAUTION...ESPECIALLY DEWPOINT AND RELATIVE
    HUMIDITY OBSERVATIONS.

INZ001>003-010>013-019-020-191400-
NORTHWEST INDIANA

CITY           SKY/WX    TMP DP  RH WIND       PRES   REMARKS
GARY /AIRPORT/ PTCLDY    28  16  59 SW12G23   29.95  WCI  18
KNOX *+        FAIR      23  18  80 SW12      29.97F WCI  12
MONTICELLO +   FAIR      23  14  70 SW13      30.01F WCI  11
RENSSELAER +   FAIR      27  16  63 SW17      30.00S WCI  14
VALPARAISO     FAIR      25  16  68 SW13      29.96F WCI  14

$$

LMZ046-743>745-191400-
SOUTHERN LAKE MICHIGAN

STATION/POSITION TIME  TEMP    WIND        PRES    WAVE
                       AIR SEA DIR/SP/G            HT
                 (UTC) (F)     (DEG/KT/KT) (MB)    (FT)
BURNS HARBOR     1240   27     190/ 16/ 21 1014.6F
MICHIGAN CITY    1230   27     180/ 14/ 17   N/A

$$

INZ004-005-014>016-021>024-191400-
NORTH CENTRAL INDIANA

CITY           SKY/WX    TMP DP  RH WIND       PRES   REMARKS
ELKHART        FAIR      23  16  74 S6        29.97  WCI  16
GOSHEN         FAIR      23  15  71 SW15G24   29.97F WCI  10
PERU/GRISSOM   FAIR      22  15  74 SW13      30.02F WCI  10
SOUTH BEND     FAIR      23  15  71 SW13      29.97R WCI  11

$$

INZ006>009-017-018-025>027-191400-
NORTHEAST INDIANA

CITY           SKY/WX    TMP DP  RH WIND       PRES   REMARKS
FORT WAYNE     FAIR      23  14  68 SW17      30.02F WCI   9
KENDALLVILLE + FAIR      24  16  70 SW13G21   29.97F WCI  12

$$

INZ028-029-035-036-043>045-051>053-191400-
WEST CENTRAL INDIANA

CITY           SKY/WX    TMP DP  RH WIND       PRES   REMARKS
CRAWFORDSVL +  FAIR      19  13  77 MISG        N/A
GREENCASTLE +  FAIR      23  12  63 S5        30.11R WCI  17
LAFAYETTE      FAIR      23  15  71 SW8       30.05F WCI  14
TERRE HAUTE    FAIR      21  12  68 S9        30.12F WCI  11

$$

INZ030>032-037>040-046>048-054>057-064-065-191400-
CENTRAL INDIANA

CITY           SKY/WX    TMP DP  RH WIND       PRES   REMARKS
COLUMBUS       CLEAR     19   9  63 S9        30.16S WCI   9
INDIANAPOLIS   FAIR      19  11  70 SW8       30.11S WCI   9
-EAGLE CREEK   FAIR      22  12  65 SW10      30.10S WCI  11
MT COMFORT *+  FAIR      19  14  79 S9        30.10S WCI   9
SHELBYVILLE    FAIR      20  10  65 S13       30.13R WCI   7

$$

INZ033-034-041-042-049-050-058-059-191400-
EAST CENTRAL INDIANA

CITY           SKY/WX    TMP DP  RH WIND       PRES   REMARKS
MUNCIE         FAIR      24  11  57 SW14      30.07S WCI  12
RICHMOND +     FAIR      19  12  73 SW10      30.12R WCI   8

$$

INZ060-061-067>069-081>083-085>088-191400-
SOUTHWEST INDIANA

CITY           SKY/WX    TMP DP  RH WIND       PRES   REMARKS
EVANSVILLE     FAIR      22  15  75 SW12      30.23R WCI  10
HUNTINGBURG +  FAIR      17  11  77 S8        30.22S WCI   7

$$

INZ062-063-066-070>080-084-089>092-191400-
SOUTH CENTRAL AND SOUTHEAST INDIANA

CITY           SKY/WX    TMP DP  RH WIND       PRES   REMARKS
BLOOMINGTON    FAIR      22  11  62 SW9       30.13F WCI  12
FRENCH LICK *+ FAIR      21  10  63 SW8       30.18F WCI  12
MADISON *+     FAIR      19  12  73 S7        30.20S WCI  10
SEYMOUR +      FAIR      21  10  63 S8        30.18  WCI  12

$$





USA.gov is the U.S. government's official web portal to all federal, state and local government web resources and services.